Pittsburgh, PA

10:48 PM EDT on June 24, 2017 (GMT -0400)
Pittsburgh International

Weather History for KPIT - April, 2012

Change the Weather History Date:

Sunday, April 22, 2012

  Actual Average Record
Temperature  
Mean Temperature 43 °F 53 °F  
Max Temperature 48 °F 64 °F 86 °F (1902)
Min Temperature 38 °F 42 °F 22 °F (1875)
Degree Days  
Heating Degree Days 22 12  
Month to date heating degree days 302 343  
Since 1 July heating degree days 4402 5388  
Cooling Degree Days 0 0  
Month to date cooling degree days 7 0  
Year to date cooling degree days 16 1  
Moisture  
Dew Point 37 °F    
Average Humidity 79    
Maximum Humidity 92    
Minimum Humidity 65    
Precipitation  
Precipitation 0.06 in 0.11 in 0.85 in (1931)
Month to date precipitation 0.99 2.29  
Year to date precipitation 10.37 10.33  
Snow  
Snow 0.00 in 0.00 in 1.00 in (1931)
Month to date snowfall T 1.4  
Since 1 July snowfall 36.9 41.8  
Snow Depth 0.00 in    
Sea Level Pressure  
Sea Level Pressure 29.83 in    
Wind  
Wind Speed 11 mph (North)    
Max Wind Speed 21 mph    
Max Gust Speed 26 mph    
Visibility 9 miles    
Events Rain    
T = Trace of Precipitation, MM = Missing Value Source: NWS Daily Summary

Daily Weather History Graph

Daily Weather History Graph

Search for Another Location

Airport or City:

Trip Planner

Search our weather history database for the weather conditions in past years. The results will help you decide how hot, cold, wet, or windy it might be!

Date:

Astronomy

Apr. 22, 2012 Rise Set
Actual Time 6:31 AM EDT 8:07 PM EDT
Civil Twilight 6:02 AM EDT 8:36 PM EDT
Nautical Twilight 5:27 AM EDT 9:11 PM EDT
Astronomical Twilight 4:50 AM EDT 9:48 PM EDT
Moon 7:01 AM EDT (4/22) 9:43 PM EDT (4/22)
Length of Visible Light 14h 34m
Length of Day
13h 36m
New Moon, 2% of the Moon is Illuminated
Apr 22
New Moon
Apr 29
First Quarter
May 5
Full
May 12
Last Quarter
May 20
New

Hourly Weather History & Observations

Time (EDT) Temp. Windchill Dew Point Humidity Pressure Visibility Wind Dir Wind Speed Gust Speed Precip Events Conditions
12:51 AM 41.0 °F 34.3 °F 37.9 °F 89% 29.94 in 10.0 mi North 11.5 mph - N/A   Overcast
1:51 AM 39.9 °F 34.5 °F 37.0 °F 89% 29.94 in 8.0 mi North 8.1 mph - 0.00 in   Light Drizzle
2:51 AM 39.9 °F 35.8 °F 37.9 °F 93% 29.93 in 6.0 mi North 5.8 mph - 0.00 in   Light Drizzle
3:51 AM 39.9 °F 34.5 °F 37.0 °F 89% 29.91 in 10.0 mi North 8.1 mph - 0.00 in   Overcast
4:23 AM 41.0 °F 35.2 °F 35.6 °F 81% 29.85 in 10.0 mi North 9.2 mph - N/A   Overcast
4:51 AM 39.9 °F 35.1 °F 37.0 °F 89% 29.89 in 10.0 mi North 6.9 mph - N/A   Overcast
5:51 AM 41.0 °F 35.8 °F 37.0 °F 86% 29.89 in 10.0 mi North 8.1 mph - N/A   Overcast
6:51 AM 41.0 °F 36.4 °F 36.0 °F 82% 29.90 in 10.0 mi NNE 6.9 mph - N/A   Overcast
7:51 AM 41.0 °F 37.1 °F 36.0 °F 82% 29.90 in 10.0 mi North 5.8 mph - N/A   Overcast
8:51 AM 41.0 °F 36.4 °F 36.0 °F 82% 29.90 in 10.0 mi NNE 6.9 mph - N/A   Overcast
9:51 AM 41.0 °F 34.7 °F 37.0 °F 86% 29.89 in 10.0 mi North 10.4 mph - N/A   Overcast
10:51 AM 42.1 °F 36.1 °F 37.0 °F 82% 29.88 in 10.0 mi NNE 10.4 mph - 0.00 in   Light Drizzle
11:51 AM 45.0 °F 40.1 °F 37.9 °F 76% 29.87 in 10.0 mi NNE 9.2 mph - 0.00 in   Light Drizzle
12:51 PM 44.1 °F 38.6 °F 39.0 °F 82% 29.85 in 7.0 mi NNE 10.4 mph - 0.00 in   Overcast
1:23 PM 46.4 °F 42.4 °F 37.4 °F 71% 29.80 in 10.0 mi NNE 8.1 mph 18.4 mph 0.00 in Rain Light Rain
1:51 PM 45.0 °F 39.7 °F 37.9 °F 76% 29.83 in 10.0 mi NNE 10.4 mph - 0.00 in   Light Drizzle
2:51 PM 46.9 °F - 37.9 °F 71% 29.82 in 10.0 mi NNE 12.7 mph 18.4 mph 0.00 in   Overcast
3:51 PM 45.0 °F 39.3 °F 39.0 °F 80% 29.81 in 9.0 mi North 11.5 mph - 0.00 in   Light Drizzle
4:51 PM 46.0 °F 39.9 °F 36.0 °F 68% 29.79 in 10.0 mi North 13.8 mph - 0.00 in   Overcast
5:51 PM 46.0 °F 40.6 °F 35.1 °F 66% 29.78 in 10.0 mi North 11.5 mph - N/A   Overcast
6:51 PM 43.0 °F 36.4 °F 39.0 °F 86% 29.78 in 7.0 mi NNW 12.7 mph - 0.02 in Rain Light Rain
7:10 PM 42.8 °F 36.2 °F 39.2 °F 87% 29.74 in 8.0 mi North 12.7 mph 23.0 mph 0.00 in Rain Light Rain
7:51 PM 41.0 °F 32.8 °F 37.9 °F 89% 29.79 in 7.0 mi North 16.1 mph 21.9 mph 0.01 in   Light Drizzle
8:38 PM 41.0 °F 32.8 °F 37.4 °F 87% 29.74 in 10.0 mi North 16.1 mph 24.2 mph 0.00 in   Light Drizzle
8:51 PM 41.0 °F 33.5 °F 37.0 °F 86% 29.79 in 10.0 mi North 13.8 mph 25.3 mph 0.00 in   Light Drizzle
9:39 PM 39.2 °F 30.2 °F 37.4 °F 93% 29.74 in 10.0 mi North 17.3 mph - 0.00 in Rain Light Rain
9:51 PM 39.9 °F 31.8 °F 36.0 °F 86% 29.78 in 6.0 mi North 15.0 mph - 0.00 in   Light Drizzle
10:38 PM 39.2 °F 30.8 °F 35.6 °F 87% 29.71 in 10.0 mi North 15.0 mph - 0.00 in   Light Drizzle
10:51 PM 39.0 °F 30.6 °F 35.1 °F 86% 29.75 in 6.0 mi North 15.0 mph 23.0 mph 0.00 in   Light Drizzle
11:37 PM 37.4 °F 27.8 °F 35.6 °F 93% 29.69 in 7.0 mi North 17.3 mph 25.3 mph 0.01 in Rain Light Rain
11:51 PM 37.9 °F 30.5 °F 36.0 °F 93% 29.73 in 7.0 mi North 11.5 mph - 0.01 in Rain Light Rain